FW7554 Weather Reports


time (UTC)temp
C
wind
direction
speed
KPH
gust
KPH
rain 1hr
cm
rain 24hr
cm
rain mn
cm
humidity
%
barometer
mb
20260504014615 8 333 0.0 0.0 0.00 0.00 0.00 64 1015.0
20260504014113 8 333 0.0 0.0 0.00 0.00 0.00 65 1014.8
20260504013610 9 333 0.0 0.0 0.00 0.00 0.00 62 1015.0
20260504013107 9 333 0.0 0.0 0.00 0.00 0.00 62 1014.8
20260504012604 10 333 0.0 0.0 0.00 0.00 0.00 61 1014.6
20260504012102 10 333 1.6 3.2 0.00 0.00 0.00 62 1014.6
20260504011559 10 333 0.0 0.0 0.00 0.00 0.00 62 1014.8
20260504011055 10 333 0.0 0.0 0.00 0.00 0.00 61 1014.8
20260504010550 10 333 0.0 0.0 0.00 0.00 0.00 60 1014.7
20260504010047 10 333 0.0 0.0 0.00 0.00 0.00 60 1014.5
20260504005543 10 333 0.0 0.0 0.00 0.00 0.00 59 1014.5
20260504005041 10 333 0.0 0.0 0.00 0.00 0.00 58 1014.7
20260504004539 11 333 0.0 0.0 0.00 0.00 0.00 58 1014.6
20260504004035 11 333 0.0 3.2 0.00 0.00 0.00 57 1014.6
20260504003532 11 333 0.0 0.0 0.00 0.00 0.00 56 1014.4
20260504003029 11 332 0.0 0.0 0.00 0.00 0.00 55 1014.5
20260504002525 11 332 0.0 0.0 0.00 0.00 0.00 58 1014.6
20260504002023 11 333 0.0 0.0 0.00 0.00 0.00 55 1014.6
20260504001520 11 333 0.0 0.0 0.00 0.00 0.00 55 1014.6
20260504001011 11 333 0.0 0.0 0.00 0.00 0.00 55 1014.6
20260504000509 11 333 1.6 3.2 0.00 0.00 0.00 55 1014.6
20260504000006 11 333 0.0 0.0 0.00 0.00 0.00 53 1014.7
20260503235504 11 333 0.0 3.2 0.00 0.00 0.00 54 1014.6
20260503235001 11 329 1.6 3.2 0.00 0.00 0.00 52 1014.3
20260503234458 11 322 0.0 3.2 0.00 0.00 0.00 55 1014.5
20260503233956 11 303 1.6 3.2 0.00 0.00 0.00 55 1014.6
20260503233452 12 303 1.6 4.8 0.00 0.00 0.00 50 1014.5
20260503232949 12 286 1.6 3.2 0.00 0.00 0.00 50 1014.4
20260503232446 12 260 1.6 4.8 0.00 0.00 0.00 52 1014.3
20260503231944 12 318 1.6 3.2 0.00 0.00 0.00 53 1014.5
20260503231441 12 314 1.6 3.2 0.00 0.00 0.00 56 1014.5
20260503230937 12 314 1.6 3.2 0.00 0.00 0.00 53 1014.6
20260503230434 12 301 3.2 3.2 0.00 0.00 0.00 53 1014.4
20260503225932 13 329 3.2 4.8 0.00 0.00 0.00 47 1014.4
20260503225428 13 325 1.6 4.8 0.00 0.00 0.00 48 1014.6
20260503224924 13 342 1.6 3.2 0.00 0.00 0.00 52 1014.6
20260503224421 13 318 4.8 9.7 0.00 0.00 0.00 49 1014.4
20260503223919 13 314 6.4 8.0 0.00 0.00 0.00 51 1014.4
20260503223416 13 265 8.0 9.7 0.00 0.00 0.00 48 1014.5
20260503222911 13 309 6.4 9.7 0.00 0.00 0.00 51 1014.6
20260503222409 13 297 4.8 9.7 0.00 0.00 0.00 52 1014.7
20260503221907 13 326 4.8 8.0 0.00 0.00 0.00 45 1014.6
20260503221406 13 331 3.2 4.8 0.00 0.00 0.00 53 1014.6
20260503220902 13 304 4.8 4.8 0.00 0.00 0.00 52 1014.7
20260503220358 13 271 4.8 8.0 0.00 0.00 0.00 50 1014.6
20260503215855 13 319 6.4 8.0 0.00 0.00 0.00 46 1014.5
20260503215352 13 314 3.2 3.2 0.00 0.00 0.00 44 1014.5
20260503214850 13 292 6.4 9.7 0.00 0.00 0.00 49 1014.5
20260503214347 13 243 11.3 14.5 0.00 0.00 0.00 48 1014.6
20260503213844 13 6 3.2 4.8 0.00 0.00 0.00 45 1014.4
20260503213342 13 313 4.8 8.0 0.00 0.00 0.00 49 1014.4
20260503212839 13 317 0.0 0.0 0.00 0.00 0.00 46 1014.5
20260503212337 14 311 3.2 4.8 0.00 0.00 0.00 48 1014.3
20260503211834 13 337 4.8 8.0 0.00 0.00 0.00 44 1014.1
20260503211330 13 321 3.2 4.8 0.00 0.00 0.00 43 1014.4
20260503210825 13 313 3.2 4.8 0.00 0.00 0.00 43 1014.5
20260503210323 13 338 1.6 3.2 0.00 0.00 0.00 47 1014.6
20260503205818 14 304 4.8 8.0 0.00 0.00 0.00 43 1014.6
20260503205315 13 323 4.8 4.8 0.00 0.00 0.00 43 1014.6
20260503204811 14 263 4.8 8.0 0.00 0.00 0.00 43 1014.6
20260503204309 15 305 0.0 3.2 0.00 0.00 0.00 45 1014.5
20260503203805 15 318 3.2 4.8 0.00 0.00 0.00 45 1014.7
20260503203302 15 290 4.8 8.0 0.00 0.00 0.00 43 1014.7
20260503202754 13 305 8.0 12.9 0.00 0.00 0.00 43 1014.8
20260503202252 14 308 6.4 8.0 0.00 0.00 0.00 47 1014.9
20260503201750 13 336 3.2 4.8 0.00 0.00 0.00 50 1014.9
20260503201247 13 334 4.8 4.8 0.00 0.00 0.00 47 1015.0
20260503200744 14 351 0.0 3.2 0.00 0.00 0.00 42 1015.0
20260503200240 14 314 3.2 4.8 0.00 0.00 0.00 44 1015.1
20260503195737 13 313 1.6 4.8 0.00 0.00 0.00 43 1015.2
20260503195234 14 317 4.8 8.0 0.00 0.00 0.00 45 1015.5
20260503194732 15 304 4.8 8.0 0.00 0.00 0.00 48 1015.4
20260503194227 13 327 3.2 4.8 0.00 0.00 0.00 47 1015.5
20260503193723 13 313 6.4 8.0 0.00 0.00 0.00 43 1015.5
20260503193220 14 208 4.8 8.0 0.00 0.00 0.00 48 1015.5
20260503192715 14 325 3.2 4.8 0.00 0.00 0.00 49 1015.7
20260503192211 14 314 1.6 4.8 0.00 0.00 0.00 43 1015.8
20260503191708 13 328 3.2 4.8 0.00 0.00 0.00 43 1016.0
20260503191205 15 302 3.2 4.8 0.00 0.00 0.00 44 1015.8
20260503190702 15 357 9.7 12.9 0.00 0.00 0.00 48 1015.9
20260503190158 14 345 1.6 3.2 0.00 0.00 0.00 50 1016.1
20260503185655 13 325 3.2 4.8 0.00 0.00 0.00 45 1016.1
20260503185150 13 339 4.8 8.0 0.00 0.00 0.00 50 1016.0
20260503184646 13 345 3.2 3.2 0.00 0.00 0.00 47 1016.3
20260503184142 13 324 4.8 8.0 0.00 0.00 0.00 49 1016.2
20260503183638 13 327 3.2 4.8 0.00 0.00 0.00 50 1016.5
20260503183136 13 317 3.2 4.8 0.00 0.00 0.00 46 1016.2
20260503182634 13 196 11.3 17.7 0.00 0.00 0.00 52 1016.2
20260503182132 13 335 4.8 4.8 0.00 0.00 0.00 50 1016.5
20260503181629 13 146 1.6 4.8 0.00 0.00 0.00 46 1016.5
20260503181126 12 325 3.2 4.8 0.00 0.00 0.00 47 1016.4
20260503180623 13 211 4.8 8.0 0.00 0.00 0.00 51 1016.8
20260503180121 14 298 4.8 4.8 0.00 0.00 0.00 47 1016.5
20260503175617 13 340 3.2 4.8 0.00 0.00 0.00 51 1016.6
20260503175114 13 305 6.4 8.0 0.00 0.00 0.00 49 1016.8
20260503174611 12 332 3.2 4.8 0.00 0.00 0.00 58 1016.9
20260503174108 13 342 6.4 8.0 0.00 0.00 0.00 45 1016.8
20260503173603 13 292 4.8 8.0 0.00 0.00 0.00 53 1016.9
20260503173100 13 332 1.6 4.8 0.00 0.00 0.00 53 1017.0
20260503172557 12 298 1.6 3.2 0.00 0.00 0.00 48 1017.2
20260503172054 13 328 3.2 4.8 0.00 0.00 0.00 46 1016.8
20260503171550 13 335 3.2 4.8 0.00 0.00 0.00 47 1017.0
20260503171048 12 339 1.6 4.8 0.00 0.00 0.00 49 1017.2
20260503170544 12 319 6.4 8.0 0.00 0.00 0.00 53 1017.0
20260503150931 10 303 3.2 4.8 0.00 0.00 0.00 50 1018.0
20260503150427 10 331 4.8 4.8 0.00 0.00 0.00 52 1018.0
20260503131320 6 342 3.2 4.8 0.00 0.00 0.00 78 1018.7
20260503130817 5 357 0.0 0.0 0.00 0.00 0.00 79 1018.7
20260503130309 5 323 1.6 3.2 0.00 0.00 0.00 80 1018.5
20260503110703 0 359 0.0 0.0 0.00 0.00 0.00 99 1017.7
20260503110200 0 359 0.0 0.0 0.00 0.00 0.00 99 1017.5
20260503100126 -2 351 0.0 0.0 0.00 0.00 0.00 99 1017.3
20260503081510 -1 350 0.0 0.0 0.00 0.00 0.00 99 1017.2
20260503081007 -1 350 0.0 0.0 0.00 0.00 0.00 99 1017.1
20260503080503 -1 350 0.0 0.0 0.00 0.00 0.00 99 1017.1
20260503072939 0 349 0.0 0.0 0.00 0.00 0.00 97 1017.1
20260503072431 0 349 0.0 0.0 0.00 0.00 0.00 97 1017.0
20260503071928 0 349 0.0 0.0 0.00 0.00 0.00 97 1017.0
20260503071425 0 349 0.0 0.0 0.00 0.00 0.00 97 1017.1
20260503070921 0 349 0.0 0.0 0.00 0.00 0.00 97 1017.1
20260503070418 0 349 0.0 0.0 0.00 0.00 0.00 96 1017.4
20260503060338 1 352 0.0 0.0 0.00 0.00 0.00 95 1017.5
20260503054826 1 347 0.0 0.0 0.00 0.00 0.00 94 1017.4
20260503054321 1 347 0.0 0.0 0.00 0.00 0.00 94 1017.5
20260503053819 1 343 0.0 0.0 0.00 0.00 0.00 94 1017.6
20260503053317 1 343 0.0 0.0 0.00 0.00 0.00 94 1017.5
20260503052813 1 343 0.0 0.0 0.00 0.00 0.00 94 1017.4
20260503052311 1 344 0.0 0.0 0.00 0.00 0.00 93 1017.6
20260503051806 1 344 0.0 0.0 0.00 0.00 0.00 93 1017.5
20260503051303 1 343 0.0 0.0 0.00 0.00 0.00 93 1017.5
20260503050800 1 343 0.0 0.0 0.00 0.00 0.00 93 1017.5
20260503050256 1 343 0.0 0.0 0.00 0.00 0.00 93 1017.6
20260503045754 1 343 0.0 0.0 0.00 0.00 0.00 93 1017.5
20260503045252 1 343 0.0 0.0 0.00 0.00 0.00 93 1017.7
20260503044747 1 343 0.0 0.0 0.00 0.00 0.00 93 1017.6
20260503044245 1 343 0.0 0.0 0.00 0.00 0.00 93 1017.5
20260503043742 1 343 0.0 0.0 0.00 0.00 0.00 92 1017.8
20260503043239 1 343 0.0 0.0 0.00 0.00 0.00 92 1017.6
20260503042735 1 343 0.0 0.0 0.00 0.00 0.00 92 1017.7
20260503042232 1 343 0.0 0.0 0.00 0.00 0.00 92 1017.6
20260503041727 1 343 0.0 0.0 0.00 0.00 0.00 91 1017.6
20260503041225 1 343 0.0 0.0 0.00 0.00 0.00 92 1017.6
20260503040723 1 343 0.0 0.0 0.00 0.00 0.00 92 1017.7
20260503040220 1 343 0.0 0.0 0.00 0.00 0.00 92 1017.7
20260503035717 1 343 0.0 0.0 0.00 0.05 0.05 92 1017.7
20260503035215 1 343 0.0 0.0 0.00 0.05 0.05 91 1017.6
20260503034712 1 343 0.0 0.0 0.00 0.05 0.05 91 1017.7
20260503034209 1 347 0.0 0.0 0.00 0.05 0.05 91 1017.7
20260503033706 1 347 0.0 0.0 0.00 0.05 0.05 91 1017.8
20260503033203 1 347 0.0 0.0 0.00 0.05 0.05 91 1017.7
20260503032701 1 347 0.0 0.0 0.00 0.05 0.05 91 1017.6
20260503032200 1 347 0.0 0.0 0.00 0.05 0.05 90 1017.7
20260503031656 1 347 0.0 0.0 0.00 0.05 0.05 90 1017.7
20260503031155 2 347 0.0 0.0 0.00 0.05 0.05 90 1017.7
20260503030650 2 348 0.0 0.0 0.00 0.05 0.05 91 1017.7
20260503030147 2 349 0.0 0.0 0.00 0.05 0.05 91 1017.8
20260503025644 2 351 0.0 0.0 0.00 0.05 0.05 91 1017.7
20260503025142 2 352 0.0 0.0 0.00 0.05 0.05 90 1017.7
20260503024638 2 347 0.0 0.0 0.00 0.05 0.05 88 1017.8
20260503024136 2 347 0.0 0.0 0.00 0.05 0.05 88 1017.8
20260503023632 2 347 0.0 0.0 0.00 0.05 0.05 87 1018.0
20260503023129 2 347 0.0 0.0 0.00 0.05 0.05 88 1018.1
20260503022625 2 347 0.0 0.0 0.00 0.05 0.05 88 1017.9
20260503022120 2 347 0.0 0.0 0.00 0.05 0.05 88 1018.1
20260503021617 2 347 0.0 0.0 0.00 0.05 0.05 88 1018.0
20260503021114 2 347 0.0 0.0 0.00 0.05 0.05 88 1017.8
20260503020611 2 347 0.0 0.0 0.00 0.05 0.05 89 1017.9
20260503020108 2 347 0.0 0.0 0.00 0.05 0.05 91 1017.9
20260503015605 2 347 0.0 0.0 0.00 0.05 0.05 90 1017.9
20260503015102 2 347 0.0 0.0 0.00 0.05 0.05 90 1017.9